Port Isabel, TX

5:22 PM CDT on May 27, 2018 (GMT -0500)
Port Isabel-Cameron County

Weather History for KPIL - December, 2013

Change the Weather History Date:

Sunday, December 8, 2013

  Actual Average (WUND) Record (WUND)
Temperature  
Mean Temperature 44 °F -  
Max Temperature 50 °F - - (-1)
Min Temperature 39 °F - - (-1)
Degree Days  
Heating Degree Days 20    
Moisture  
Dew Point 39 °F    
Average Humidity 85    
Maximum Humidity 93    
Minimum Humidity 77    
Precipitation  
Precipitation 0.01 in - - ()
Sea Level Pressure  
Sea Level Pressure 30.13 in    
Wind  
Wind Speed 14 mph (NW)    
Max Wind Speed 20 mph    
Max Gust Speed 25 mph    
Visibility 6 miles    
Events Rain    
Averages and records for this station are not official NWS values.
T = Trace of Precipitation, MM = Missing Value Source: NWS Daily Summary

Daily Weather History Graph

Daily Weather History Graph

Search for Another Location

Airport or City:

Astronomy

Dec. 08, 2013 Rise Set
Actual Time 7:04 AM CST 5:38 PM CST
Civil Twilight 6:39 AM CST 6:03 PM CST
Nautical Twilight 6:11 AM CST 6:31 PM CST
Astronomical Twilight 5:42 AM CST 7:00 PM CST
Moon 11:52 AM CST (12/8) 11:59 PM CST (12/8)
Length of Visible Light 11h 23m
Length of Day
10h 33m
Waxing Crescent, 40% of the Moon is Illuminated
Dec 8
Waxing Crescent
Dec 9
First Quarter
Dec 17
Full
Dec 25
Last Quarter
Jan 1
New

Hourly Weather History & Observations

Time (CST) Temp. Windchill Dew Point Humidity Pressure Visibility Wind Dir Wind Speed Gust Speed Precip Events Conditions
12:27 AM 39.2 °F 30.2 °F 33.8 °F 81% 30.23 in 8.0 mi NW 17.3 mph - N/A   Overcast
12:53 AM 39.0 °F 30.3 °F 34.0 °F 82% 30.20 in 8.0 mi NW 16.1 mph - N/A   Overcast
1:38 AM 39.2 °F 30.2 °F 33.8 °F 81% 30.19 in 8.0 mi NW 17.3 mph - N/A   Overcast
1:53 AM 39.9 °F 31.8 °F 34.0 °F 79% 30.18 in 8.0 mi NW 15.0 mph - N/A   Overcast
2:53 AM 39.9 °F 31.1 °F 33.1 °F 77% 30.17 in 9.0 mi NW 17.3 mph - N/A   Overcast
3:53 AM 39.0 °F 29.3 °F 33.1 °F 79% 30.16 in 9.0 mi NW 19.6 mph 25.3 mph N/A   Overcast
4:53 AM 39.0 °F 31.0 °F 33.1 °F 79% 30.16 in 8.0 mi NW 13.8 mph - N/A   Overcast
5:53 AM 39.0 °F 31.0 °F 36.0 °F 89% 30.16 in 6.0 mi NW 13.8 mph - 0.00 in Rain Light Rain
6:29 AM 39.2 °F 31.2 °F 35.6 °F 87% 30.17 in 6.0 mi NNW 13.8 mph - 0.00 in Rain Light Rain
6:39 AM 39.2 °F 32.5 °F 35.6 °F 87% 30.17 in 5.0 mi NW 10.4 mph - 0.00 in Rain Light Rain
6:53 AM 39.0 °F 32.3 °F 36.0 °F 89% 30.18 in 4.0 mi NNW 10.4 mph - 0.00 in Rain Light Rain
7:03 AM 39.2 °F 31.6 °F 35.6 °F 87% 30.18 in 5.0 mi NW 12.7 mph - 0.00 in Rain Light Rain
7:53 AM 39.0 °F 31.8 °F 37.0 °F 93% 30.17 in 4.0 mi NNW 11.5 mph - 0.01 in   Overcast
8:15 AM 39.2 °F 31.2 °F 37.4 °F 93% 30.17 in 4.0 mi NW 13.8 mph - N/A   Overcast
8:53 AM 39.9 °F 32.5 °F 37.9 °F 93% 30.18 in 5.0 mi NW 12.7 mph - N/A   Overcast
9:53 AM 42.1 °F 35.7 °F 39.0 °F 89% 30.17 in 6.0 mi NW 11.5 mph - N/A   Overcast
10:53 AM 43.0 °F 37.2 °F 39.0 °F 86% 30.16 in 6.0 mi WNW 10.4 mph - N/A   Overcast
11:53 AM 45.0 °F 39.3 °F 39.9 °F 82% 30.13 in 7.0 mi NW 11.5 mph - N/A   Overcast
12:53 PM 46.0 °F 40.2 °F 42.1 °F 86% 30.09 in 5.0 mi NW 12.7 mph - N/A   Overcast
1:53 PM 48.0 °F - 43.0 °F 83% 30.06 in 6.0 mi NNW 10.4 mph - N/A   Haze
2:53 PM 50.0 °F - 44.1 °F 80% 30.04 in 7.0 mi NNW 9.2 mph - N/A   Overcast
3:53 PM 48.9 °F - 43.0 °F 80% 30.04 in 7.0 mi North 5.8 mph - N/A   Overcast
4:53 PM 48.9 °F - 45.0 °F 86% 30.04 in 5.0 mi NNW 8.1 mph - N/A   Overcast
5:53 PM 48.9 °F - 45.0 °F 86% 30.04 in 8.0 mi NNW 9.2 mph - N/A   Overcast
6:53 PM 48.9 °F - 46.0 °F 90% 30.04 in 7.0 mi NNW 10.4 mph - N/A   Overcast
7:53 PM 50.0 °F - 46.0 °F 86% 30.06 in 7.0 mi NW 10.4 mph - N/A   Overcast
8:53 PM 50.0 °F - 46.0 °F 86% 30.07 in 7.0 mi NW 10.4 mph - N/A   Overcast
9:53 PM 50.0 °F - 46.9 °F 89% 30.07 in 7.0 mi NW 10.4 mph - N/A   Overcast
10:53 PM 50.0 °F - 46.9 °F 89% 30.06 in 6.0 mi NW 9.2 mph - N/A   Overcast
11:53 PM 50.0 °F - 46.9 °F 89% 30.05 in 5.0 mi WNW 8.1 mph - N/A   Overcast